sat.trackr.live / text

‹ back to catalog

STARLINK-5914

NORAD 55941 · 2023-037AD

PAYLOAD ACTIVE UNKNOWN

§ Identity

Operator
Country
US
Launch date
2023-03-17
Launch site
AFWTR
Launch vehicle
Mass (kg)
RCS (m²)

Purposes: comms

External: N2YO · Heavens-Above · Gunter

§ Orbital elements

Epoch: 2026-09-20T22:00:03.000096Z

Period
95.73 min
Inclination
70.0020°
Eccentricity
0.0003506
Mean motion
15.04271585 rev/d
Perigee alt
551.3 km
Apogee alt
556.2 km
Semi-major
6,931.9 km
B*
2.4683e-3
RAAN
152.3164°
Arg perigee
256.3756°
Mean anomaly
13.5594°
Rev number
566

§ Raw data

STARLINK-59141 55941U 23037AD  26263.91670139  .00034493  00000+0  24683-2 0  99912 55941  70.0020 152.3164 0003506 256.3756  13.5594 15.04271585  5667

JSON: /api/v1/satellites/55941 · /tle

For live sub-satellite position, see the globe view (requires WebGL).

§ Visibility from observer

Set your observer location to see the next 7 days of passes ≥ 10°. The values pass through the URL so the page stays shareable.

No JS? Fill the form by hand. The geolocation button needs JavaScript.